Location: Dugenta
(41.1333°N, 14.4500°E)
Time: 14:28:30
(UTC+00:00)

Cosmos 1666 Rocket - Pass Details

Date: 03 March 2021
Orbit: 605 x 632 km, 82.5° (Epoch: 13 April)

Event Time Altitude Azimuth Distance (km) Brightness Sun altitude
Rises 17:18:37 0° 184° (S) 2,858 7.1 -5.2°
Reaches altitude 10° 17:20:49 10° 183° (S) 1,955 6.2 -5.6°
Maximum altitude 17:25:08 81° 97° (E) 620 3.5 -6.4°
Drops below altitude 10° 17:29:29 10° 10° (N) 1,962 6.0 -7.2°
Sets 17:31:42 0° 9° (N) 2,869 6.9 -7.6°
